TOURFACTS.DK  
Stats and Facts from Tour de France.

Tour de France 2018 starts in 12 days
  Riders   Stages   Teams   Summits   Yearly  


 
Search by year

After 2017 - Stage 21:
 14824 starters.
  5132 different riders.
  639 teams.
  2232 stages.
  456 restdays.
  439589.60 km.
  5653 abandonnees.


Top 3
GC
Christopher Froome86:20:55
Rigoberto Urán86:21:49
Romain Bardet86:23:15
Climb
Warren Barguil169 pt.
Primoz Roglic80 pt.
Thomas De Gendt64 pt.
Sprint
Michael Matthews359 pt.
André Greipel234 pt.
Edvald Boasson Hagen220 pt.
Youth
Simon Yates86:27:09
Louis Meintjes86:29:15
Emanuel Buchmann86:54:16
Facts from Tour de France 1949
  |   Stages.  |   Stage winners.  |   Days in yellow  |   Average speed.  |   Route.  |   Teams.  |   All riders.  |   Rookies.  |  

  |   Withdrawls.  |   GC.  |   Polka  |   Green  |   White  |   Summits. (In tour)  |   Miscellaneous.  |  

Stage 15 on 16 - 07 - 1949
         Owning:    Vittorio Magni    
Pick a stage:  1 2 3 4 5 6 7 8 9 10 11 12 13 14 15 16 17 18 19 20 21
  MarseilleCannes | Dist: 215.00 km.

Average speed for all riders in stage:  34,233 km./hr.
    Place:Name:Team:Time:Km/h:
BELDésiré KeteleerBELBelgium06:02:29  +  00:00:00=35,588 
FRAEmile IdéeFRAIle De France06:02:29  +  00:00:00=35,588 
ITAGuido De SantiITAItaly06:02:29  +  00:00:00=35,588 
4 FRAPaul GiguetFRASouth-East06:02:29  +  00:00:00=35,588 
5 LUXJean DiederichLUXLuxembourg06:02:29  +  00:00:00=35,588 
6 ITAFermo CamelliniFRASouth-East06:02:29  +  00:00:00=35,588 
7 BELRoger LambrechtBELBelgium06:02:29  +  00:00:00=35,588 
8 FRAJean-Apotre LazaridesFRAFrance06:02:31  +  00:00:02=35,585 
9 BELFlorent MathieuBELBelgium06:14:58  +  00:12:29=34,403 
10 SUIFerdi KüblerCHESwitzerland06:14:58  +  00:12:29=34,403 
11 SUIGeorges AeschlimannCHESwitzerland06:14:58  +  00:12:29=34,403 
12 LUXJean GoldschmitLUXLuxembourg06:14:58  +  00:12:29=34,403 
13 LUXJean KirchenLUXLuxembourg06:14:58  +  00:12:29=34,403 
14 ITAGiuseppe TaccaFRAIle De France06:14:58  +  00:12:29=34,403 
15 FRAJacques MarinelliFRAIle De France06:14:58  +  00:12:29=34,403 
16 BELMarcel HendrickxBELAiglons Belges06:14:58  +  00:12:29=34,403 
17 BELJacques GeusBELAiglons Belges06:14:58  +  00:12:29=34,403 
18 BELMarcel DupontBELAiglons Belges06:14:58  +  00:12:29=34,403 
19 BELMarcel De MulderBELAiglons Belges06:14:58  +  00:12:29=34,403 
20 ITAArmando PeverelliITACadetti Italiens06:14:58  +  00:12:29=34,403 
21 ITASylvio PedroniITACadetti Italiens06:14:58  +  00:12:29=34,403 
22 ITAVittorio MagniITACadetti Italiens06:14:58  +  00:12:29=34,403 
23 FRAAndré BruléFRAIle De France06:14:58  +  00:12:29=34,403 
24 FRAPierre CoganFRAWest-North06:14:58  +  00:12:29=34,403 
25 ITAGiuseppe AusendaITACadetti Italiens06:14:58  +  00:12:29=34,403 
26 FRAJean-Marie GoasmatFRAWest-North06:14:58  +  00:12:29=34,403 
27 ITAFausto CoppiITAItaly06:14:58  +  00:12:29=34,403 
28 ITAGiovanni CorrieriITAItaly06:14:58  +  00:12:29=34,403 
29 ITAGino BartaliITAItaly06:14:58  +  00:12:29=34,403 
30 ITAÉdouard FachleitnerFRASouth-East06:14:58  +  00:12:29=34,403 
31 ITALuciano PezziITAItaly06:14:58  +  00:12:29=34,403 
32 FRAGeorges RamouluxFRACenter-South West06:14:58  +  00:12:29=34,403 
33 ITAMario RicciITAItaly06:14:58  +  00:12:29=34,403 
34 ITAGino SciardisITAItaly06:14:58  +  00:12:29=34,403 
35 BELMarcel KintBELBelgium06:14:58  +  00:12:29=34,403 
36 BELStan OckersBELBelgium06:14:58  +  00:12:29=34,403 
37 FRAHenri MassalFRACenter-South West06:14:58  +  00:12:29=34,403 
38 FRARobert ChapatteFRAFrance06:14:58  +  00:12:29=34,403 
39 FRAJean RobicFRAWest-North06:14:58  +  00:12:29=34,403 
40 FRAAndre MahéFRAWest-North06:14:58  +  00:12:29=34,403 
41 ITANello LaurediFRASouth-East06:14:58  +  00:12:29=34,403 
42 FRARoger LevequeFRACenter-South West06:17:44  +  00:15:15=34,151 
43 FRALucien TeisseireFRAFrance06:17:53  +  00:15:24=34,138 
44 BELRik Van SteenbergenBELBelgium06:17:53  +  00:15:24=34,138 
45 ITAVincenzo RosselloITAItaly06:17:53  +  00:15:24=34,138 
46 ITAEttore MilanoITAItaly06:17:53  +  00:15:24=34,138 
47 FRAJean BlancFRACenter-South West06:21:25  +  00:18:56=33,821 
48 ITAAngelo BrignoleITAItaly06:21:25  +  00:18:56=33,821 
49 GERCésar MarcelakFRAWest-North06:21:25  +  00:18:56=33,821 
50 FRALouis DeprezFRAFrance06:22:29  +  00:20:00=33,727 
51 FRAAntonin RollandFRASouth-East06:22:29  +  00:20:00=33,727 
52 ITASerifano BiagioniITAItaly06:22:29  +  00:20:00=33,727 
53 FRAGeorges MartinFRASouth-East06:22:29  +  00:20:00=33,727 
54 MARCustodio Dos ReisFRACenter-South West06:24:56  +  00:22:27=33,512 
55 ITABruno PasquiniITAItaly06:24:56  +  00:22:27=33,512 
56 SUIPierre BrambillaFRASouth-East06:24:56  +  00:22:27=33,512 
57 FRAPaul PineauFRACenter-South West06:24:56  +  00:22:27=33,512 
58 FRAAlbert DolhatsFRACenter-South West06:24:56  +  00:22:27=33,512 
59 FRARaphaël GeminianiFRAFrance06:24:56  +  00:22:27=33,512 
60 FRALucien LazaridesFRAFrance06:24:56  +  00:22:27=33,512 
61 FRARené ViettoFRAFrance06:24:56  +  00:22:27=33,512 
62 BELJoseph VerhaertBELAiglons Belges06:33:38  +  00:31:09=32,772 
63 BELBriek SchotteBELBelgium06:33:38  +  00:31:09=32,772 
64 FRAEdouard MullerFRAIle De France06:34:20  +  00:31:51=32,713 
65 SUIGottfried WeilenmannCHESwitzerland06:35:37  +  00:33:08=32,607 

Withdrawls: 3
 
Rider
Team
Reason
64  ITAAlfredo MartiniITACadetti ItaliensDid not finish
88  FRARoger Le NizerhyFRAWest-NorthDid not finish
111  ITAAdolphe DeleddaFRASouth-EastDid not finish

Todays birthdays.

1875  Jules Sales
1888  Leon Lannoy
1922  Henri Surbatis
1932  Ferdinand Devèze
1939  Dieter Puschel
1961  Gerhard Zadrobilek
1964  Javier Duch
1965  Clarence Knickman
1968  Michael Sandstød
1986  Simon Spilak




Visits: